Time,TemperatureF,DewpointF,PressureIn,WindDirection,WindDirectionDegrees,WindSpeedMPH,WindSpeedGustMPH,Humidity,HourlyPrecipIn,Conditions,Clouds,dailyrainin,SoftwareType,DateUTC
2013-04-10 07:06:00,50.0,46.3,29.80,ESE,120,9.0,9.0,87,0.00,,,0.06,Wunderground v.1.15,2013-04-10 14:06:00,
2013-04-10 07:08:00,50.0,46.3,29.80,ESE,118,8.0,8.0,87,0.00,,,0.06,Wunderground v.1.15,2013-04-10 14:08:00,
2013-04-10 07:10:00,50.0,46.3,29.80,East,92,7.0,7.0,87,0.00,,,0.06,Wunderground v.1.15,2013-04-10 14:10:00,
2013-04-10 07:12:00,50.0,46.3,29.79,SSE,153,7.0,9.0,87,0.00,,,0.06,Wunderground v.1.15,2013-04-10 14:12:00,
2013-04-10 07:18:00,50.0,46.3,29.79,East,101,7.0,9.0,87,0.00,,,0.06,Wunderground v.1.15,2013-04-10 14:18:00,
2013-04-10 07:24:00,50.0,46.3,29.79,ESE,107,6.0,7.0,87,0.00,,,0.06,Wunderground v.1.15,2013-04-10 14:24:00,
2013-04-10 07:30:00,49.9,46.5,29.79,East,86,6.0,6.0,88,0.05,,,0.06,Wunderground v.1.15,2013-04-10 14:30:00,
2013-04-10 07:36:00,50.1,46.4,29.79,SE,127,6.0,7.0,87,0.05,,,0.07,Wunderground v.1.15,2013-04-10 14:36:00,
2013-04-10 07:42:00,50.2,46.5,29.80,SSE,164,5.0,6.0,87,0.05,,,0.07,Wunderground v.1.15,2013-04-10 14:42:00,
2013-04-10 07:48:00,50.0,46.3,29.80,SE,126,2.0,6.0,87,0.04,,,0.08,Wunderground v.1.15,2013-04-10 14:48:00,
2013-04-10 07:54:00,49.7,46.3,29.80,NW,313,1.0,2.0,88,0.09,,,0.09,Wunderground v.1.15,2013-04-10 14:54:00,
2013-04-10 08:00:00,49.2,46.1,29.80,NW,314,1.0,1.0,89,0.09,,,0.09,Wunderground v.1.15,2013-04-10 15:00:00,
2013-04-10 08:06:00,48.9,46.4,29.80,East,90,1.0,2.0,91,0.09,,,0.10,Wunderground v.1.15,2013-04-10 15:06:00,
2013-04-10 08:12:00,48.5,46.0,29.81,NW,320,1.0,1.0,91,0.10,,,0.11,Wunderground v.1.15,2013-04-10 15:12:00,
2013-04-10 08:18:00,48.4,46.2,29.81,NW,312,1.0,1.0,92,0.13,,,0.12,Wunderground v.1.15,2013-04-10 15:18:00,
2013-04-10 08:24:00,48.3,46.1,29.81,WNW,301,1.0,2.0,92,0.16,,,0.13,Wunderground v.1.15,2013-04-10 15:24:00,
2013-04-10 08:30:00,48.3,46.1,29.81,NNW,337,1.0,2.0,92,0.18,,,0.15,Wunderground v.1.15,2013-04-10 15:30:00,
2013-04-10 08:38:00,48.3,46.4,29.81,East,79,1.0,2.0,93,0.19,,,0.17,Wunderground v.1.15,2013-04-10 15:38:00,
2013-04-10 08:44:00,48.3,46.4,29.81,SE,136,1.0,4.0,93,0.14,,,0.17,Wunderground v.1.15,2013-04-10 15:44:00,
2013-04-10 08:50:00,48.1,46.2,29.82,ENE,69,1.0,2.0,93,0.11,,,0.18,Wunderground v.1.15,2013-04-10 15:50:00,
2013-04-10 08:56:00,48.2,46.3,29.82,SSE,150,1.0,2.0,93,0.08,,,0.19,Wunderground v.1.15,2013-04-10 15:56:00,
2013-04-10 09:02:00,48.1,46.2,29.82,East,94,0.0,1.0,93,0.06,,,0.19,Wunderground v.1.15,2013-04-10 16:02:00,
2013-04-10 09:08:00,47.9,46.0,29.83,East,83,1.0,3.0,93,0.04,,,0.19,Wunderground v.1.15,2013-04-10 16:08:00,
2013-04-10 09:14:00,47.7,45.8,29.83,ESE,103,1.0,3.0,93,0.00,,,0.19,Wunderground v.1.15,2013-04-10 16:14:00,
2013-04-10 09:20:00,47.7,45.8,29.83,East,94,1.0,1.0,93,0.00,,,0.20,Wunderground v.1.15,2013-04-10 16:20:00,
2013-04-10 09:26:00,47.9,46.3,29.83,East,95,0.0,1.0,94,0.00,,,0.20,Wunderground v.1.15,2013-04-10 16:26:00,
2013-04-10 09:32:00,48.2,46.6,29.83,ENE,58,0.0,0.0,94,0.00,,,0.20,Wunderground v.1.15,2013-04-10 16:32:00,
2013-04-10 09:38:00,48.4,46.8,29.84,ENE,58,0.0,0.0,94,0.00,,,0.20,Wunderground v.1.15,2013-04-10 16:38:00,
2013-04-10 09:44:00,48.3,46.7,29.84,WSW,250,0.0,0.0,94,0.00,,,0.20,Wunderground v.1.15,2013-04-10 16:44:00,
2013-04-10 09:50:00,48.3,46.7,29.85,SW,217,0.0,0.0,94,0.00,,,0.20,Wunderground v.1.15,2013-04-10 16:50:00,
2013-04-10 09:56:00,47.9,46.0,29.85,WNW,293,1.0,2.0,93,0.22,,,0.22,Wunderground v.1.15,2013-04-10 16:56:00,
2013-04-10 10:02:00,47.9,46.0,29.85,NW,325,2.0,2.0,93,0.07,,,0.22,Wunderground v.1.15,2013-04-10 17:02:00,
2013-04-10 10:08:00,47.8,45.9,29.86,NW,309,2.0,3.0,93,0.31,,,0.25,Wunderground v.1.15,2013-04-10 17:08:00,
2013-04-10 10:14:00,47.8,45.9,29.87,NW,311,1.0,1.0,93,0.53,,,0.28,Wunderground v.1.15,2013-04-10 17:14:00,
2013-04-10 10:20:00,47.7,45.8,29.88,NW,305,0.0,3.0,93,0.28,,,0.30,Wunderground v.1.15,2013-04-10 17:20:00,
2013-04-10 10:26:00,47.7,46.1,29.88,ENE,77,1.0,3.0,94,0.09,,,0.30,Wunderground v.1.15,2013-04-10 17:26:00,
2013-04-10 10:32:00,47.7,45.8,29.88,SSE,156,2.0,2.0,93,0.07,,,0.31,Wunderground v.1.15,2013-04-10 17:32:00,
2013-04-10 10:38:00,48.0,46.1,29.88,NW,315,2.0,3.0,93,0.06,,,0.31,Wunderground v.1.15,2013-04-10 17:38:00,
2013-04-10 10:44:00,48.7,47.1,29.88,East,101,1.0,2.0,94,0.04,,,0.31,Wunderground v.1.15,2013-04-10 17:44:00,
2013-04-10 10:50:00,48.9,47.0,29.89,SSE,164,1.0,1.0,93,0.00,,,0.31,Wunderground v.1.15,2013-04-10 17:50:00,
2013-04-10 10:56:00,49.3,47.4,29.89,WSW,242,0.0,1.0,93,0.00,,,0.31,Wunderground v.1.15,2013-04-10 17:56:00,
2013-04-10 11:02:00,49.8,47.6,29.89,West,265,1.0,2.0,92,0.00,,,0.31,Wunderground v.1.15,2013-04-10 18:02:00,
2013-04-10 11:08:00,50.2,47.4,29.90,WSW,246,2.0,3.0,90,0.00,,,0.31,Wunderground v.1.15,2013-04-10 18:08:00,
2013-04-10 11:14:00,50.1,47.0,29.90,NNW,342,2.0,6.0,89,0.00,,,0.31,Wunderground v.1.15,2013-04-10 18:14:00,
2013-04-10 11:20:00,49.8,46.7,29.91,WNW,301,3.0,5.0,89,0.00,,,0.31,Wunderground v.1.15,2013-04-10 18:20:00,
2013-04-10 11:26:00,50.2,46.8,29.91,West,281,2.0,5.0,88,0.00,,,0.31,Wunderground v.1.15,2013-04-10 18:26:00,
2013-04-10 11:32:00,50.6,46.9,29.91,ESE,105,2.0,3.0,87,0.00,,,0.31,Wunderground v.1.15,2013-04-10 18:32:00,
2013-04-10 11:38:00,51.4,46.4,29.91,WSW,241,3.0,4.0,83,0.00,,,0.31,Wunderground v.1.15,2013-04-10 18:38:00,
2013-04-10 11:44:00,51.9,46.9,29.92,NW,321,4.0,4.0,83,0.00,,,0.31,Wunderground v.1.15,2013-04-10 18:44:00,
2013-04-10 11:50:00,52.5,46.8,29.92,NW,312,3.0,3.0,81,0.00,,,0.31,Wunderground v.1.15,2013-04-10 18:50:00,
2013-04-10 11:56:00,53.1,47.1,29.92,ESE,102,2.0,3.0,80,0.00,,,0.31,Wunderground v.1.15,2013-04-10 18:56:00,
2013-04-10 12:02:00,54.0,47.3,29.92,NNE,23,2.0,6.0,78,0.00,,,0.31,Wunderground v.1.15,2013-04-10 19:02:00,
2013-04-10 12:08:00,53.5,45.1,29.93,NW,309,3.0,6.0,73,0.00,,,0.31,Wunderground v.1.15,2013-04-10 19:08:00,
2013-04-10 12:14:00,54.3,45.8,29.93,NNW,329,3.0,4.0,73,0.00,,,0.31,Wunderground v.1.15,2013-04-10 19:14:00,
2013-04-10 12:20:00,54.6,45.0,29.94,WSW,252,3.0,4.0,70,0.00,,,0.31,Wunderground v.1.15,2013-04-10 19:20:00,
2013-04-10 12:26:00,54.8,45.6,29.94,WNW,285,3.0,6.0,71,0.00,,,0.31,Wunderground v.1.15,2013-04-10 19:26:00,
2013-04-10 12:32:00,54.9,45.7,29.94,SE,132,3.0,3.0,71,0.00,,,0.31,Wunderground v.1.15,2013-04-10 19:32:00,
2013-04-10 12:38:00,55.0,46.1,29.95,NW,323,2.0,3.0,72,0.00,,,0.31,Wunderground v.1.15,2013-04-10 19:38:00,
2013-04-10 12:44:00,55.3,45.3,29.95,ESE,106,2.0,3.0,69,0.00,,,0.31,Wunderground v.1.15,2013-04-10 19:44:00,
2013-04-10 12:50:00,54.9,43.4,29.96,WNW,295,3.0,7.0,65,0.00,,,0.31,Wunderground v.1.15,2013-04-10 19:50:00,
2013-04-10 12:56:00,55.1,45.5,29.96,ENE,63,2.0,7.0,70,0.00,,,0.31,Wunderground v.1.15,2013-04-10 19:56:00,
2013-04-10 13:02:00,55.1,45.1,29.97,SW,220,2.0,5.0,69,0.00,,,0.31,Wunderground v.1.15,2013-04-10 20:02:00,
2013-04-10 13:08:00,55.8,45.8,29.97,WNW,294,2.0,5.0,69,0.00,,,0.31,Wunderground v.1.15,2013-04-10 20:08:00,
2013-04-10 13:14:00,56.2,44.6,29.97,NW,312,2.0,7.0,65,0.00,,,0.31,Wunderground v.1.15,2013-04-10 20:14:00,
2013-04-10 13:20:00,56.1,44.5,29.97,SW,215,2.0,8.0,65,0.00,,,0.31,Wunderground v.1.15,2013-04-10 20:20:00,
2013-04-10 13:26:00,56.1,45.3,29.97,West,267,3.0,8.0,67,0.00,,,0.31,Wunderground v.1.15,2013-04-10 20:26:00,
2013-04-10 13:32:00,56.3,45.5,29.98,SSW,194,2.0,4.0,67,0.00,,,0.31,Wunderground v.1.15,2013-04-10 20:32:00,
2013-04-10 13:38:00,55.7,44.5,29.98,SSW,200,3.0,7.0,66,0.00,,,0.31,Wunderground v.1.15,2013-04-10 20:38:00,
2013-04-10 13:44:00,55.9,45.9,29.99,SE,146,3.0,4.0,69,0.00,,,0.31,Wunderground v.1.15,2013-04-10 20:44:00,
2013-04-10 13:50:00,56.0,45.6,29.99,NE,56,2.0,2.0,68,0.00,,,0.31,Wunderground v.1.15,2013-04-10 20:50:00,
2013-04-10 13:56:00,56.4,44.8,29.99,NW,316,1.0,5.0,65,0.00,,,0.31,Wunderground v.1.15,2013-04-10 20:56:00,
2013-04-10 14:02:00,55.9,44.7,30.00,SSW,208,3.0,3.0,66,0.00,,,0.31,Wunderground v.1.15,2013-04-10 21:02:00,
2013-04-10 14:08:00,56.0,44.8,30.00,NNW,329,3.0,5.0,66,0.00,,,0.31,Wunderground v.1.15,2013-04-10 21:08:00,
2013-04-10 14:14:00,56.5,44.5,30.00,WSW,240,3.0,3.0,64,0.00,,,0.31,Wunderground v.1.15,2013-04-10 21:14:00,
2013-04-10 14:20:00,56.3,44.7,30.00,SW,219,3.0,3.0,65,0.00,,,0.31,Wunderground v.1.15,2013-04-10 21:20:00,
2013-04-10 14:26:00,56.2,44.6,30.01,SE,146,4.0,4.0,65,0.00,,,0.31,Wunderground v.1.15,2013-04-10 21:26:00,
2013-04-10 14:32:00,56.6,45.0,30.01,WSW,253,3.0,5.0,65,0.00,,,0.31,Wunderground v.1.15,2013-04-10 21:32:00,
2013-04-10 14:38:00,56.7,44.7,30.01,East,90,3.0,7.0,64,0.00,,,0.31,Wunderground v.1.15,2013-04-10 21:38:00,
2013-04-10 14:44:00,56.7,44.2,30.02,SSE,158,3.0,3.0,63,0.00,,,0.31,Wunderground v.1.15,2013-04-10 21:44:00,
2013-04-10 14:50:00,57.0,44.1,30.02,West,259,3.0,3.0,62,0.00,,,0.31,Wunderground v.1.15,2013-04-10 21:50:00,
2013-04-10 14:56:00,57.2,44.3,30.02,SSW,207,2.0,4.0,62,0.00,,,0.31,Wunderground v.1.15,2013-04-10 21:56:00,
2013-04-10 15:02:00,57.0,44.1,30.02,West,263,3.0,5.0,62,0.00,,,0.31,Wunderground v.1.15,2013-04-10 22:02:00,
2013-04-10 15:08:00,57.0,44.5,30.03,SSW,200,2.0,8.0,63,0.00,,,0.31,Wunderground v.1.15,2013-04-10 22:08:00,
2013-04-10 15:14:00,57.2,44.3,30.03,SW,226,2.0,2.0,62,0.00,,,0.31,Wunderground v.1.15,2013-04-10 22:14:00,
2013-04-10 15:20:00,57.3,44.4,30.03,ENE,65,2.0,3.0,62,0.00,,,0.31,Wunderground v.1.15,2013-04-10 22:20:00,
2013-04-10 15:26:00,57.1,44.2,30.03,ESE,106,3.0,4.0,62,0.00,,,0.31,Wunderground v.1.15,2013-04-10 22:26:00,
2013-04-10 15:32:00,57.2,44.3,30.03,West,277,3.0,3.0,62,0.00,,,0.31,Wunderground v.1.15,2013-04-10 22:32:00,
2013-04-10 15:38:00,57.2,43.9,30.04,WSW,239,3.0,4.0,61,0.00,,,0.31,Wunderground v.1.15,2013-04-10 22:38:00,
2013-04-10 15:44:00,57.6,43.4,30.04,WNW,302,3.0,7.0,59,0.00,,,0.31,Wunderground v.1.15,2013-04-10 22:44:00,
2013-04-10 15:50:00,58.1,41.5,30.04,WSW,248,3.0,3.0,54,0.00,,,0.31,Wunderground v.1.15,2013-04-10 22:50:00,
2013-04-10 15:56:00,58.5,39.9,30.04,NW,322,4.0,10.0,50,0.00,,,0.31,Wunderground v.1.15,2013-04-10 22:56:00,
2013-04-10 16:02:00,58.5,39.4,30.03,West,262,4.0,4.0,49,0.00,,,0.31,Wunderground v.1.15,2013-04-10 23:02:00,
2013-04-10 16:08:00,58.6,39.5,30.03,North,354,3.0,6.0,49,0.00,,,0.31,Wunderground v.1.15,2013-04-10 23:08:00,
2013-04-10 16:14:00,58.9,39.2,30.03,ESE,107,4.0,6.0,48,0.00,,,0.31,Wunderground v.1.15,2013-04-10 23:14:00,
2013-04-10 16:20:00,59.5,40.8,30.03,SSE,150,3.0,3.0,50,0.00,,,0.31,Wunderground v.1.15,2013-04-10 23:20:00,
2013-04-10 16:26:00,59.8,39.5,30.03,ENE,76,1.0,3.0,47,0.00,,,0.31,Wunderground v.1.15,2013-04-10 23:26:00,
2013-04-10 16:32:00,59.3,39.1,30.03,East,92,2.0,4.0,47,0.00,,,0.31,Wunderground v.1.15,2013-04-10 23:32:00,
2013-04-10 16:38:00,59.3,39.1,30.04,NW,305,2.0,4.0,47,0.00,,,0.31,Wunderground v.1.15,2013-04-10 23:38:00,
2013-04-10 16:44:00,58.6,42.9,30.04,NW,309,3.0,8.0,56,0.00,,,0.31,Wunderground v.1.15,2013-04-10 23:44:00,
2013-04-10 16:50:00,57.4,42.7,30.04,SSW,197,3.0,3.0,58,0.00,,,0.31,Wunderground v.1.15,2013-04-10 23:50:00,
2013-04-10 16:56:00,57.1,42.0,30.05,West,281,2.0,5.0,57,0.00,,,0.31,Wunderground v.1.15,2013-04-10 23:56:00,
2013-04-10 17:02:00,58.0,42.8,30.04,SSE,159,2.0,2.0,57,0.00,,,0.31,Wunderground v.1.15,2013-04-11 00:02:00,
2013-04-10 17:08:00,58.2,43.0,30.04,WSW,256,2.0,3.0,57,0.00,,,0.31,Wunderground v.1.15,2013-04-11 00:08:00,
2013-04-10 17:14:00,58.5,43.3,30.05,WSW,246,2.0,3.0,57,0.00,,,0.31,Wunderground v.1.15,2013-04-11 00:14:00,
2013-04-10 17:20:00,58.6,43.9,30.05,West,260,2.0,2.0,58,0.00,,,0.31,Wunderground v.1.15,2013-04-11 00:20:00,
2013-04-10 17:26:00,58.8,43.1,30.05,SW,224,1.0,2.0,56,0.00,,,0.31,Wunderground v.1.15,2013-04-11 00:26:00,
2013-04-10 17:32:00,59.4,42.7,30.05,WSW,251,2.0,3.0,54,0.00,,,0.31,Wunderground v.1.15,2013-04-11 00:32:00,
2013-04-10 17:38:00,59.5,42.3,30.06,SW,235,1.0,4.0,53,0.00,,,0.31,Wunderground v.1.15,2013-04-11 00:38:00,
2013-04-10 17:44:00,59.8,43.1,30.06,West,264,1.0,2.0,54,0.00,,,0.31,Wunderground v.1.15,2013-04-11 00:44:00,
2013-04-10 17:50:00,60.4,42.7,30.06,ESE,122,1.0,1.0,52,0.00,,,0.31,Wunderground v.1.15,2013-04-11 00:50:00,
2013-04-10 17:56:00,60.0,42.8,30.06,NE,37,1.0,4.0,53,0.00,,,0.31,Wunderground v.1.15,2013-04-11 00:56:00,
2013-04-10 18:02:00,59.1,42.0,30.06,WNW,299,2.0,2.0,53,0.00,,,0.31,Wunderground v.1.15,2013-04-11 01:02:00,
2013-04-10 18:08:00,58.3,42.2,30.06,West,259,1.0,3.0,55,0.00,,,0.31,Wunderground v.1.15,2013-04-11 01:08:00,
2013-04-10 18:14:00,57.5,41.9,30.06,SE,129,1.0,1.0,56,0.00,,,0.31,Wunderground v.1.15,2013-04-11 01:14:00,
2013-04-10 18:20:00,56.9,41.4,30.07,West,280,1.0,1.0,56,0.00,,,0.31,Wunderground v.1.15,2013-04-11 01:20:00,
2013-04-10 18:26:00,56.6,41.5,30.07,NW,305,0.0,1.0,57,0.00,,,0.31,Wunderground v.1.15,2013-04-11 01:26:00,
2013-04-10 18:32:00,56.7,42.1,30.07,WNW,284,1.0,1.0,58,0.00,,,0.31,Wunderground v.1.15,2013-04-11 01:32:00,
2013-04-10 18:38:00,56.4,42.2,30.07,WNW,297,0.0,1.0,59,0.00,,,0.31,Wunderground v.1.15,2013-04-11 01:38:00,
2013-04-10 18:44:00,56.3,42.1,30.07,NNW,330,1.0,2.0,59,0.00,,,0.31,Wunderground v.1.15,2013-04-11 01:44:00,
2013-04-10 18:50:00,56.2,42.9,30.07,SW,232,0.0,0.0,61,0.00,,,0.31,Wunderground v.1.15,2013-04-11 01:50:00,
2013-04-10 18:56:00,55.9,43.1,30.08,SSW,198,0.0,0.0,62,0.00,,,0.31,Wunderground v.1.15,2013-04-11 01:56:00,
2013-04-10 19:02:00,55.6,43.6,30.08,SW,229,0.0,0.0,64,0.00,,,0.31,Wunderground v.1.15,2013-04-11 02:02:00,
2013-04-10 19:08:00,55.2,43.2,30.08,SW,232,0.0,0.0,64,0.00,,,0.31,Wunderground v.1.15,2013-04-11 02:08:00,
2013-04-10 19:14:00,54.9,43.7,30.08,SW,231,0.0,0.0,66,0.00,,,0.31,Wunderground v.1.15,2013-04-11 02:14:00,
2013-04-10 19:20:00,54.5,43.8,30.09,SW,227,0.0,0.0,67,0.00,,,0.31,Wunderground v.1.15,2013-04-11 02:20:00,
2013-04-10 19:26:00,54.3,44.0,30.08,WSW,250,0.0,0.0,68,0.00,,,0.31,Wunderground v.1.15,2013-04-11 02:26:00,
2013-04-10 19:32:00,54.0,44.4,30.08,SSE,160,0.0,0.0,70,0.00,,,0.31,Wunderground v.1.15,2013-04-11 02:32:00,
2013-04-10 19:38:00,53.8,44.2,30.09,West,266,0.0,0.0,70,0.00,,,0.31,Wunderground v.1.15,2013-04-11 02:38:00,
2013-04-10 19:44:00,53.7,44.1,30.09,SW,232,0.0,0.0,70,0.00,,,0.31,Wunderground v.1.15,2013-04-11 02:44:00,
2013-04-10 19:50:00,53.5,44.3,30.09,SW,231,0.0,0.0,71,0.00,,,0.31,Wunderground v.1.15,2013-04-11 02:50:00,
2013-04-10 19:56:00,53.2,44.0,30.09,SSE,160,0.0,2.0,71,0.00,,,0.31,Wunderground v.1.15,2013-04-11 02:56:00,
2013-04-10 20:02:00,53.1,42.8,30.09,WSW,242,1.0,1.0,68,0.00,,,0.31,Wunderground v.1.15,2013-04-11 03:02:00,
2013-04-10 20:08:00,53.0,42.3,30.09,South,184,0.0,1.0,67,0.00,,,0.31,Wunderground v.1.15,2013-04-11 03:08:00,
2013-04-10 20:14:00,52.7,42.8,30.09,South,184,0.0,0.0,69,0.00,,,0.31,Wunderground v.1.15,2013-04-11 03:14:00,
2013-04-10 20:20:00,52.5,42.6,30.10,WSW,243,0.0,1.0,69,0.00,,,0.31,Wunderground v.1.15,2013-04-11 03:20:00,
2013-04-10 20:26:00,52.5,43.0,30.10,West,276,0.0,4.0,70,0.00,,,0.31,Wunderground v.1.15,2013-04-11 03:26:00,
2013-04-10 20:32:00,52.3,42.8,30.10,SE,126,0.0,1.0,70,0.00,,,0.31,Wunderground v.1.15,2013-04-11 03:32:00,
2013-04-10 20:38:00,52.3,43.2,30.10,SSE,152,1.0,1.0,71,0.00,,,0.31,Wunderground v.1.15,2013-04-11 03:38:00,
2013-04-10 20:44:00,52.2,43.4,30.11,SW,221,1.0,3.0,72,0.00,,,0.31,Wunderground v.1.15,2013-04-11 03:44:00,
2013-04-10 20:50:00,52.1,43.3,30.11,West,271,1.0,1.0,72,0.00,,,0.31,Wunderground v.1.15,2013-04-11 03:50:00,
2013-04-10 20:56:00,52.1,43.7,30.11,West,271,0.0,1.0,73,0.00,,,0.31,Wunderground v.1.15,2013-04-11 03:56:00,
2013-04-10 21:00:00,52.0,43.6,30.11,West,271,0.0,0.0,73,0.00,,,0.31,Wunderground v.1.15,2013-04-11 04:00:00,
2013-04-10 21:02:00,52.0,43.6,30.12,West,271,0.0,0.0,73,0.00,,,0.31,Wunderground v.1.15,2013-04-11 04:02:00,
2013-04-10 21:04:00,51.9,43.5,30.12,NW,305,0.0,1.0,73,0.00,,,0.31,Wunderground v.1.15,2013-04-11 04:04:00,
2013-04-10 21:10:00,51.9,43.9,30.12,NW,305,0.0,0.0,74,0.00,,,0.31,Wunderground v.1.15,2013-04-11 04:10:00,
2013-04-10 21:16:00,51.7,44.0,30.12,NW,305,0.0,0.0,75,0.00,,,0.31,Wunderground v.1.15,2013-04-11 04:16:00,
2013-04-10 21:22:00,51.5,44.2,30.12,ESE,104,0.0,1.0,76,0.00,,,0.31,Wunderground v.1.15,2013-04-11 04:22:00,
2013-04-10 21:28:00,51.5,44.2,30.12,East,84,0.0,1.0,76,0.00,,,0.31,Wunderground v.1.15,2013-04-11 04:28:00,
2013-04-10 21:34:00,51.5,43.8,30.13,WSW,251,1.0,1.0,75,0.00,,,0.31,Wunderground v.1.15,2013-04-11 04:34:00,
2013-04-10 21:40:00,51.7,44.0,30.13,NW,318,1.0,1.0,75,0.00,,,0.31,Wunderground v.1.15,2013-04-11 04:40:00,
2013-04-10 21:46:00,51.6,43.6,30.13,West,265,0.0,1.0,74,0.00,,,0.31,Wunderground v.1.15,2013-04-11 04:46:00,
2013-04-10 21:52:00,51.5,44.2,30.14,WSW,239,0.0,1.0,76,0.00,,,0.31,Wunderground v.1.15,2013-04-11 04:52:00,
2013-04-10 21:58:00,51.3,43.3,30.14,WSW,257,1.0,2.0,74,0.00,,,0.31,Wunderground v.1.15,2013-04-11 04:58:00,
2013-04-10 22:04:00,51.2,43.2,30.14,SSW,211,2.0,2.0,74,0.00,,,0.31,Wunderground v.1.15,2013-04-11 05:04:00,
2013-04-10 22:10:00,51.1,43.4,30.14,NNE,20,1.0,2.0,75,0.00,,,0.31,Wunderground v.1.15,2013-04-11 05:10:00,
2013-04-10 22:16:00,50.9,43.3,30.14,SW,218,1.0,2.0,75,0.00,,,0.31,Wunderground v.1.15,2013-04-11 05:16:00,
2013-04-10 22:22:00,50.8,43.5,30.14,WNW,287,1.0,1.0,76,0.00,,,0.31,Wunderground v.1.15,2013-04-11 05:22:00,
2013-04-10 22:28:00,50.6,43.3,30.14,NW,309,0.0,1.0,76,0.00,,,0.31,Wunderground v.1.15,2013-04-11 05:28:00,
2013-04-10 22:34:00,50.5,43.2,30.15,East,86,0.0,3.0,76,0.00,,,0.31,Wunderground v.1.15,2013-04-11 05:34:00,
2013-04-10 22:40:00,50.5,43.6,30.15,NE,53,0.0,2.0,77,0.00,,,0.31,Wunderground v.1.15,2013-04-11 05:40:00,
2013-04-10 22:46:00,50.5,43.6,30.14,WSW,250,0.0,2.0,77,0.00,,,0.31,Wunderground v.1.15,2013-04-11 05:46:00,
2013-04-10 22:52:00,50.4,43.5,30.15,WSW,247,0.0,0.0,77,0.00,,,0.31,Wunderground v.1.15,2013-04-11 05:52:00,
2013-04-10 22:58:00,50.3,43.4,30.15,North,352,0.0,1.0,77,0.00,,,0.31,Wunderground v.1.15,2013-04-11 05:58:00,
2013-04-10 23:04:00,50.1,42.8,30.15,WSW,253,0.0,1.0,76,0.00,,,0.31,Wunderground v.1.15,2013-04-11 06:04:00,
2013-04-10 23:10:00,50.1,42.5,30.15,West,264,1.0,1.0,75,0.00,,,0.31,Wunderground v.1.15,2013-04-11 06:10:00,
2013-04-10 23:16:00,50.0,42.0,30.15,WNW,302,1.0,1.0,74,0.00,,,0.31,Wunderground v.1.15,2013-04-11 06:16:00,
2013-04-10 23:22:00,50.0,42.0,30.15,NW,316,1.0,2.0,74,0.00,,,0.31,Wunderground v.1.15,2013-04-11 06:22:00,
2013-04-10 23:28:00,49.8,42.2,30.15,WSW,242,1.0,2.0,75,0.00,,,0.31,Wunderground v.1.15,2013-04-11 06:28:00,
2013-04-10 23:34:00,49.6,42.3,30.16,East,81,0.0,1.0,76,0.00,,,0.31,Wunderground v.1.15,2013-04-11 06:34:00,
2013-04-10 23:40:00,49.4,42.5,30.16,North,1,2.0,2.0,77,0.00,,,0.31,Wunderground v.1.15,2013-04-11 06:40:00,
2013-04-10 23:46:00,49.2,42.3,30.16,WNW,287,3.0,3.0,77,0.00,,,0.31,Wunderground v.1.15,2013-04-11 06:46:00,
2013-04-10 23:52:00,49.1,42.5,30.16,East,100,2.0,2.0,78,0.00,,,0.31,Wunderground v.1.15,2013-04-11 06:52:00,
2013-04-10 23:58:00,48.9,42.3,30.15,ENE,68,1.0,3.0,78,0.00,,,0.31,Wunderground v.1.15,2013-04-11 06:58:00,